Mountain Home, AR

3:08 AM CST on November 24, 2017 (GMT -0600)
Baxter County Regional

Weather History for KBPK - February, 2013

Change the Weather History Date:

Wednesday, February 13, 2013

  Actual Average (KFLP) Record (KFLP)
Temperature  
Mean Temperature 42 °F -  
Max Temperature 52 °F 50 °F 71 °F (2005)
Min Temperature 33 °F 31 °F 15 °F (2004)
Degree Days  
Heating Degree Days 22    
Moisture  
Dew Point 33 °F    
Average Humidity 85    
Maximum Humidity 100    
Minimum Humidity 39    
Precipitation  
Precipitation 0.10 in - - ()
Sea Level Pressure  
Sea Level Pressure 29.94 in    
Wind  
Wind Speed 3 mph (WNW)    
Max Wind Speed 10 mph    
Max Gust Speed 18 mph    
Visibility 8 miles    
Events Rain , Snow    
Averages and records for this station are not official NWS values.
T = Trace of Precipitation, MM = Missing Value Source: NWS Daily Summary

Daily Weather History Graph

Daily Weather History Graph

Search for Another Location

Airport or City:

Trip Planner

Search our weather history database for the weather conditions in past years. The results will help you decide how hot, cold, wet, or windy it might be!

Date:

Astronomy

Feb. 13, 2013 Rise Set
Actual Time 6:59 AM CST 5:49 PM CST
Civil Twilight 6:33 AM CST 6:15 PM CST
Nautical Twilight 6:02 AM CST 6:45 PM CST
Astronomical Twilight 5:32 AM CST 7:15 PM CST
Moon 8:37 AM CST (2/13) 9:43 PM CST (2/13)
Length of Visible Light 11h 42m
Length of Day
10h 49m
Waxing Crescent, 14% of the Moon is Illuminated
Feb 13
Waxing Crescent
Feb 17
First Quarter
Feb 25
Full
Mar 4
Last Quarter
Mar 11
New

Hourly Weather History & Observations

Time (CST) Temp. Windchill Dew Point Humidity Pressure Visibility Wind Dir Wind Speed Gust Speed Precip Events Conditions
12:04 AM 35.6 °F 31.7 °F 33.8 °F 93% 29.92 in 6.0 mi NNW 4.6 mph - 0.01 in Rain Light Rain
12:17 AM 35.6 °F 30.7 °F 33.8 °F 93% 29.92 in 6.0 mi NNW 5.8 mph - 0.02 in Rain Light Rain
12:53 AM 35.1 °F 29.3 °F 33.1 °F 92% 29.92 in 7.0 mi North 6.9 mph - 0.03 in Rain Light Rain
1:48 AM 33.8 °F - 33.8 °F 100% 29.91 in 7.0 mi Calm Calm - 0.03 in Rain Light Rain
1:53 AM 34.0 °F 31.0 °F 34.0 °F 100% 29.92 in 7.0 mi North 3.5 mph - 0.03 in Rain Light Rain
2:10 AM 33.8 °F - 33.8 °F 100% 29.91 in 7.0 mi Calm Calm - 0.00 in Rain Light Rain
2:32 AM 33.8 °F - 33.8 °F 100% 29.90 in 7.0 mi Calm Calm - 0.01 in Rain Light Rain
2:53 AM 34.0 °F - 34.0 °F 100% 29.91 in 5.0 mi Calm Calm - 0.01 in Rain Light Rain
3:03 AM 33.8 °F - 33.8 °F 100% 29.89 in 5.0 mi Calm Calm - 0.01 in Rain Light Rain
3:31 AM 33.8 °F - 33.8 °F 100% 29.89 in 4.0 mi Calm Calm - 0.01 in Snow Light Snow
3:42 AM 33.8 °F - 33.8 °F 100% 29.89 in 5.0 mi Calm Calm - 0.01 in Rain Light Freezing Rain
3:53 AM 33.1 °F - 33.1 °F 100% 29.91 in 5.0 mi Calm Calm - 0.01 in Rain Light Freezing Rain
4:04 AM 33.8 °F 30.8 °F 33.8 °F 100% 29.90 in 4.0 mi NW 3.5 mph - 0.01 in Snow Light Snow
4:53 AM 33.1 °F 28.7 °F 33.1 °F 100% 29.93 in 3.0 mi NW 4.6 mph - 0.02 in Snow Light Snow
5:16 AM 33.8 °F 30.8 °F 33.8 °F 100% 29.92 in 5.0 mi Variable 3.5 mph - 0.00 in Rain Light Freezing Rain
5:53 AM 34.0 °F - 34.0 °F 100% 29.94 in 6.0 mi Calm Calm - 0.00 in Rain Light Freezing Rain
6:12 AM 33.8 °F 30.8 °F 33.8 °F 100% 29.93 in 7.0 mi NW 3.5 mph - 0.00 in   Overcast
6:37 AM 33.8 °F - 33.8 °F 100% 29.93 in 7.0 mi Calm Calm - 0.00 in   Overcast
6:53 AM 34.0 °F 31.0 °F 34.0 °F 100% 29.95 in 8.0 mi WNW 3.5 mph - 0.00 in   Overcast
7:21 AM 35.6 °F 32.8 °F 35.6 °F 100% 29.95 in 9.0 mi WNW 3.5 mph - N/A   Overcast
7:49 AM 35.6 °F - 35.6 °F 100% 29.97 in 7.0 mi Calm Calm - N/A   Overcast
7:53 AM 35.1 °F 31.0 °F 35.1 °F 100% 29.98 in 7.0 mi WNW 4.6 mph - N/A   Overcast
8:03 AM 35.6 °F 31.7 °F 35.6 °F 100% 29.97 in 7.0 mi Variable 4.6 mph - 0.00 in Rain Light Rain
8:53 AM 35.1 °F 32.2 °F 35.1 °F 100% 30.00 in 7.0 mi Variable 3.5 mph - 0.00 in   Overcast
9:18 AM 35.6 °F 32.8 °F 35.6 °F 100% 29.99 in 4.0 mi Variable 3.5 mph - N/A   Overcast
9:53 AM 36.0 °F 32.1 °F 36.0 °F 100% 30.00 in 6.0 mi West 4.6 mph - N/A   Overcast
10:30 AM 39.2 °F 35.9 °F 39.2 °F 100% 29.98 in 8.0 mi Variable 4.6 mph - N/A   Mostly Cloudy
10:53 AM 42.1 °F 38.4 °F 41.0 °F 96% 30.00 in 9.0 mi Variable 5.8 mph - N/A   Mostly Cloudy
11:17 AM 41.0 °F 38.0 °F 37.4 °F 87% 29.97 in 9.0 mi West 4.6 mph - N/A   Scattered Clouds
11:53 AM 46.0 °F 42.5 °F 36.0 °F 68% 29.97 in 9.0 mi Variable 6.9 mph - N/A   Partly Cloudy
12:53 PM 48.9 °F - 32.0 °F 52% 29.94 in 10.0 mi WSW 10.4 mph - N/A   Partly Cloudy
1:53 PM 52.0 °F - 30.9 °F 45% 29.93 in 10.0 mi Variable 4.6 mph - N/A   Scattered Clouds
2:53 PM 50.0 °F - 28.9 °F 44% 29.91 in 10.0 mi WNW 4.6 mph 18.4 mph N/A   Clear
3:53 PM 51.1 °F - 27.0 °F 39% 29.91 in 10.0 mi Variable 6.9 mph 16.1 mph N/A   Clear
4:53 PM 50.0 °F - 28.0 °F 43% 29.92 in 10.0 mi WNW 5.8 mph - N/A   Clear
5:53 PM 46.9 °F - 28.9 °F 50% 29.92 in 10.0 mi Calm Calm - N/A   Clear
6:53 PM 46.0 °F - 28.9 °F 51% 29.93 in 10.0 mi Calm Calm - N/A   Clear
7:53 PM 44.1 °F 42.5 °F 28.9 °F 55% 29.94 in 10.0 mi WSW 3.5 mph - N/A   Clear
8:53 PM 42.1 °F 37.7 °F 28.9 °F 60% 29.94 in 10.0 mi SW 6.9 mph - N/A   Clear
9:53 PM 42.1 °F 40.2 °F 30.0 °F 62% 29.95 in 10.0 mi WSW 3.5 mph - N/A   Clear
10:53 PM 39.9 °F 36.7 °F 30.9 °F 70% 29.95 in 10.0 mi SSW 4.6 mph - N/A   Clear
11:53 PM 37.9 °F 34.4 °F 30.9 °F 76% 29.95 in 10.0 mi SSW 4.6 mph - N/A   Clear